Preview of NWS' New Version of Forecast
This preview is not operational and should not be used for support decisions.

Regional Weather Roundup (RWR)

Issued by National Weather Service (NWS)

                            
000
ASUS43 KDTX 200810
RWRMI 
MICHIGAN HOURLY REGIONAL WEATHER ROUNDUP
NATIONAL WEATHER SERVICE DETROIT/PONTIAC MI
400 AM EDT SAT APR 20 2019

NOTE: "FAIR" INDICATES FEW OR NO CLOUDS BELOW 12,000 FEET WITH NO
SIGNIFICANT WEATHER AND/OR OBSTRUCTION TO VISIBILITY.

MIZ047>049-052>055-059>063-066>070-074>076-081>083-200900-
SOUTHEAST LOWER MICHIGAN
  
CITY           SKY/WX    TMP DP  RH WIND       PRES   REMARKS
ADRIAN         CLOUDY    40  34  79 NE23      29.67F WCI  30          
ALMA           FAIR      40  31  69 N10G20    29.81S WCI  34          
ANN ARBOR      CLOUDY    40  35  83 N16G22    29.68R WCI  31          
BAD AXE        CLOUDY    38  33  82 NE16G29   29.79S WCI  29          
CARO           MOCLDY    38  33  81 N8        29.78S WCI  32          
DETROIT CITY   CLOUDY    38  35  89 N18G26    29.68F WCI  28          
DETROIT        CLOUDY    39  35  86 N16G26    29.68S WCI  30          
FLINT          CLOUDY    40  33  76 NE15G24   29.76S WCI  32          
GROSSE ILE     CLOUDY    40  37  92 N16G22    29.65F WCI  31          
HILLSDALE      CLOUDY    40  33  75 N17G29    29.67R WCI  31          
HOWELL         CLOUDY    40  33  76 N13G21    29.72F WCI  33          

CITY           SKY/WX    TMP DP  RH WIND       PRES   REMARKS
JACKSON        CLOUDY    40  34  79 N14G30    29.70F WCI  32          
LAMBERTVILLE   CLOUDY    40  38  93 NE13G21   29.65F WCI  32          
LANSING        CLOUDY    41  33  73 NE18G30   29.76S                  
LAPEER         LGT RAIN  38  37  93 NE12G21   29.76R WCI  31          
MASON          CLOUDY    40  34  77 N14G26    29.74S WCI  33          
MONROE         CLOUDY    40  40  99 N16       29.66F WCI  32          
PONTIAC        LGT RAIN  38  36  92 N17G28    29.70S WCI  28          
PORT HOPE        N/A     38  35  89 N23       29.78F WCI  27          
TRI CITIES     MOCLDY    40  34  79 NE18      29.81S WCI  31          
MIDLAND        FAIR      40  31  69 N10G16    29.82S WCI  34          
TROY           CLOUDY    39  35  84 N10G23    29.71F WCI  32          
SAGINAW HB     MOCLDY    41  36  81 N20G26    29.79S                  
$$
MIZ043>046-050>051-056>058-064>065-071>073-077>080-200900-
SOUTHWEST LOWER MICHIGAN
  
CITY           SKY/WX    TMP DP  RH WIND       PRES   REMARKS
BATTLE CREEK   CLOUDY    42  31  64 NE18G29   29.74S                  
BENTON HARBOR  FAIR      42  28  57 VRB7G17   29.77S                  
BIG RAPIDS     FAIR      39  27  61 NE7       29.84S WCI  34          
COLDWATER      CLOUDY    42  35  75 NE15G30   29.70S                  
FREMONT        FAIR      38  25  59 N8        29.83S WCI  32          
HOLLAND        FAIR      40  28  62 N7        29.80S                  
GRAND RAPIDS   FAIR      41  29  62 NE16      29.79F                  
IONIA          FAIR      40  28  64 N20G25    29.78F WCI  30          
KALAMAZOO      FAIR      42  31  64 NE16G30   29.74F                  
LUDINGTON      FAIR      37  25  61 N5        29.87S WCI  33          
MARSHALL       CLOUDY    42  35  77 N9G18     29.72R                  
MOUNT PLEASANT FAIR      39  31  71 NE9       29.82S WCI  33          
MUSKEGON       FAIR      41  25  53 N8        29.84R                  
SOUTH HAVEN    FAIR      41  29  61 NE13G20   29.77F                  
$$
MIZ016>042-200900-
NORTHERN LOWER MICHIGAN
  
CITY           SKY/WX    TMP DP  RH WIND       PRES   REMARKS
ALPENA         FAIR      32  28  85 N8        29.90S WCI  25          
BEAVER ISLAND  FAIR      27  25  90 CALM      29.95R                  
BELLAIRE       FAIR      29  27  94 CALM      29.92S                  
CADILLAC       FAIR      35  25  66 N6        29.84F WCI  30          
CHARLEVOIX     FAIR      31  29  92 CALM      29.95S                  
FRANKFORT      FAIR      41  23  48 N6        29.91S                  
GAYLORD        FAIR      34  22  61 NE8       29.88F WCI  27          
HARBOR SPRINGS FAIR      30  24  79 CALM      29.93S                  
HOUGHTON LAKE  FAIR      34  25  69 NE9       29.85F WCI  27          
MANISTEE       FAIR      33  23  66 CALM      29.89S                  
OSCODA         FAIR      38  31  75 NE17G25   29.85F WCI  29          
PELLSTON       FAIR      25  22  88 CALM      29.94R                  
ROGERS CITY    FAIR      34  30  83 N3        29.93S                  
TRAVERSE CITY  FAIR      29  26  89 CALM      29.90F                  
$$
MIZ007>008-015-200900-
EASTERN UPPER MICHIGAN
  
CITY           SKY/WX    TMP DP  RH WIND       PRES   REMARKS
KINROSS        FAIR      31  27  85 N6        29.94S WCI  25          
MACKINAC ISLAN FAIR      31  26  81 NE7       29.94R WCI  25          
NEWBERRY       FAIR      33  25  73 CALM      29.94F                  
S. S. MARIE    FAIR      32  27  81 W3        29.94R                  
MUNISING         N/A     27  22  81 S10       29.94S WCI  17          
$$
MIZ004>006-011>014-085-200900-
CENTRAL UPPER MICHIGAN
  
CITY           SKY/WX    TMP DP  RH WIND       PRES   REMARKS
MANISTIQUE     FAIR      30  21  69 N6        29.94S WCI  24          
ESCANABA       FAIR      24  23  96 CALM      29.96R                  
MENOMINEE      FAIR      26  23  88 CALM      29.95S                  
SAWYER-GWINN   FAIR      28  24  85 CALM      29.92F                  
$$
MIZ001>003-009>011-084-200900-
WESTERN UPPER MICHIGAN
  
CITY           SKY/WX    TMP DP  RH WIND       PRES   REMARKS
IRON MOUNTAIN  FAIR      26  20  77 NW3       29.93S                  
HOUGHTON       FAIR      40  18  41 SW5       29.89F                  
COPPER HARBOR    N/A     42  21  43 SW12      29.89F                  
IRONWOOD       FAIR      42  19  39 S10       29.89F                  
$$

ABBREVIATIONS USED IN REMARKS
   TC - TEMPERATURE IN CELSIUS
  WCI - WIND CHILL INDEX
   HX - HEAT INDEX
  VSB - VISIBILITY